SDM721 ULLI-ULAA

Flight info

Callsign SDM721
Flight time 1h 10m
Altitude 37000
Route RELNI1B RELNI T693 DISUP DCT MAKOG MAKOG2L
Aircraft A319/M-VGDW/C

Departure

Time 2026-04-26 07:43
Airport Pulkovo Airport (ULLI)

Arrival

Time 2026-04-26 08:54
Airport Talagi Airport (ULAA)
Time Latitude Longitude Altitude Speed Heading
2026-04-26 07:16 59.79850 30.26732 82 ft 0 kts 97°
2026-04-26 07:24 59.79850 30.26731 81 ft 0 kts 97°
2026-04-26 07:31 59.79850 30.26730 81 ft 1 kts 97°
2026-04-26 07:31 59.79852 30.26693 82 ft 3 kts 97°
2026-04-26 07:31 59.79854 30.26660 83 ft 3 kts 98°
2026-04-26 07:32 59.79859 30.26623 85 ft 3 kts 124°
2026-04-26 07:32 59.79872 30.26597 84 ft 3 kts 158°
2026-04-26 07:32 59.79890 30.26588 84 ft 3 kts 181°
2026-04-26 07:32 59.79910 30.26592 82 ft 2 kts 196°
2026-04-26 07:33 59.79911 30.26593 82 ft 1 kts 197°
2026-04-26 07:36 59.79910 30.26592 82 ft 0 kts 197°
2026-04-26 07:36 59.79902 30.26588 83 ft 2 kts 197°
2026-04-26 07:36 59.79883 30.26577 83 ft 4 kts 197°
2026-04-26 07:37 59.79854 30.26559 74 ft 5 kts 196°
2026-04-26 07:37 59.79813 30.26536 85 ft 7 kts 196°
2026-04-26 07:37 59.79763 30.26506 84 ft 8 kts 197°
2026-04-26 07:37 59.79708 30.26473 84 ft 9 kts 197°
2026-04-26 07:38 59.79647 30.26437 86 ft 9 kts 196°
2026-04-26 07:38 59.79582 30.26399 85 ft 10 kts 197°
2026-04-26 07:38 59.79512 30.26364 86 ft 10 kts 180°
2026-04-26 07:38 59.79479 30.26475 87 ft 11 kts 106°
2026-04-26 07:39 59.79456 30.26626 85 ft 12 kts 107°
2026-04-26 07:39 59.79433 30.26779 88 ft 12 kts 106°
2026-04-26 07:39 59.79410 30.26933 89 ft 12 kts 106°
2026-04-26 07:39 59.79387 30.27089 88 ft 12 kts 106°
2026-04-26 07:40 59.79363 30.27246 89 ft 12 kts 107°
2026-04-26 07:40 59.79339 30.27406 87 ft 12 kts 107°
2026-04-26 07:40 59.79315 30.27567 88 ft 12 kts 106°
2026-04-26 07:40 59.79291 30.27728 89 ft 12 kts 106°
2026-04-26 07:41 59.79267 30.27896 88 ft 12 kts 106°
2026-04-26 07:41 59.79242 30.28058 89 ft 12 kts 107°
2026-04-26 07:41 59.79204 30.28205 91 ft 12 kts 141°
2026-04-26 07:41 59.79125 30.28251 91 ft 12 kts 167°
2026-04-26 07:42 59.79053 30.28210 89 ft 11 kts 237°
2026-04-26 07:42 59.79060 30.28087 89 ft 0 kts 285°
2026-04-26 07:42 59.79061 30.28077 89 ft 10 kts 285°
2026-04-26 07:42 59.79157 30.27424 91 ft 85 kts 287°
2026-04-26 07:43 59.79379 30.25905 86 ft 142 kts 286°
2026-04-26 07:43 59.79695 30.23776 349 ft 165 kts 287°
2026-04-26 07:43 59.80005 30.21558 1008 ft 168 kts 290°
2026-04-26 07:43 59.80342 30.19303 1629 ft 178 kts 295°
2026-04-26 07:44 59.80731 30.16801 1982 ft 202 kts 295°
2026-04-26 07:44 59.81165 30.13986 2542 ft 220 kts 293°
2026-04-26 07:44 59.81608 30.11010 3350 ft 227 kts 291°
2026-04-26 07:44 59.82052 30.07965 4220 ft 231 kts 289°
2026-04-26 07:45 59.82500 30.04887 5156 ft 231 kts 290°
2026-04-26 07:45 59.82989 30.01843 6120 ft 230 kts 298°
2026-04-26 07:45 59.83996 29.99448 6999 ft 228 kts 328°
2026-04-26 07:45 59.85493 29.98429 7787 ft 234 kts 357°
2026-04-26 07:46 59.87109 29.99003 8593 ft 239 kts 16°
2026-04-26 07:46 59.88703 29.99960 9479 ft 241 kts 16°
2026-04-26 07:46 59.90319 30.00919 10311 ft 242 kts 15°
2026-04-26 07:46 59.91913 30.02044 11081 ft 247 kts 29°
2026-04-26 07:47 59.93139 30.04480 11812 ft 257 kts 59°
2026-04-26 07:47 59.93564 30.07942 12588 ft 269 kts 90°
2026-04-26 07:47 59.93149 30.11691 13388 ft 276 kts 102°
2026-04-26 07:47 59.92611 30.15316 14150 ft 277 kts 102°
2026-04-26 07:48 59.92019 30.18983 14945 ft 280 kts 108°
2026-04-26 07:48 59.91208 30.22696 15199 ft 303 kts 110°
2026-04-26 07:48 59.90317 30.26661 15452 ft 323 kts 110°
2026-04-26 07:48 59.89402 30.30810 16045 ft 328 kts 107°
2026-04-26 07:49 59.88795 30.35173 16642 ft 332 kts 97°
2026-04-26 07:49 59.88582 30.39845 16978 ft 343 kts 90°
2026-04-26 07:49 59.88456 30.44634 17574 ft 349 kts 90°
2026-04-26 07:50 59.88177 30.54359 18800 ft 354 kts 91°
2026-04-26 07:50 59.88030 30.59260 19452 ft 356 kts 91°
2026-04-26 07:50 59.88048 30.64181 20060 ft 356 kts 82°
2026-04-26 07:50 59.88532 30.69011 20700 ft 356 kts 71°
2026-04-26 07:51 59.89476 30.73568 21322 ft 357 kts 61°
2026-04-26 07:51 59.90806 30.77763 21945 ft 360 kts 56°
2026-04-26 07:51 59.92202 30.81916 22565 ft 362 kts 56°
2026-04-26 07:51 59.93601 30.86111 23091 ft 365 kts 57°
2026-04-26 07:52 59.95006 30.90358 23505 ft 369 kts 57°
2026-04-26 07:52 59.96424 30.94669 23896 ft 374 kts 57°
2026-04-26 07:52 59.97860 30.99038 24266 ft 379 kts 57°
2026-04-26 07:52 59.99315 31.03458 24638 ft 383 kts 57°
2026-04-26 07:53 60.00786 31.07937 25006 ft 388 kts 57°
2026-04-26 07:53 60.02273 31.12465 25363 ft 392 kts 57°
2026-04-26 07:53 60.03776 31.17061 25691 ft 397 kts 57°
2026-04-26 07:53 60.05291 31.21713 26019 ft 401 kts 57°
2026-04-26 07:54 60.06820 31.26422 26363 ft 406 kts 57°
2026-04-26 07:54 60.08367 31.31184 26703 ft 410 kts 57°
2026-04-26 07:54 60.09929 31.35986 27043 ft 414 kts 57°
2026-04-26 07:54 60.11508 31.40843 27384 ft 417 kts 57°
2026-04-26 07:55 60.13220 31.45582 27720 ft 422 kts 50°
2026-04-26 07:55 60.15286 31.49690 28037 ft 426 kts 40°
2026-04-26 07:55 60.17728 31.53124 28353 ft 431 kts 31°
2026-04-26 07:55 60.20454 31.55734 28643 ft 436 kts 24°
2026-04-26 07:56 60.23255 31.58117 28940 ft 440 kts 23°
2026-04-26 07:56 60.26083 31.60527 29220 ft 443 kts 24°
2026-04-26 07:56 60.28936 31.62972 29466 ft 447 kts 24°
2026-04-26 07:56 60.31806 31.65442 29680 ft 451 kts 24°
2026-04-26 07:57 60.34701 31.67942 29918 ft 453 kts 23°
2026-04-26 07:57 60.37604 31.70457 30168 ft 456 kts 24°
2026-04-26 07:57 60.40525 31.72996 30381 ft 459 kts 24°
2026-04-26 07:57 60.43461 31.75555 30620 ft 461 kts 24°
2026-04-26 07:58 60.46410 31.78126 30925 ft 461 kts 24°
2026-04-26 07:58 60.49360 31.80700 31221 ft 462 kts 24°
2026-04-26 07:58 60.52314 31.83280 31551 ft 462 kts 23°
2026-04-26 07:58 60.55264 31.85861 31839 ft 463 kts 24°
2026-04-26 07:59 60.58236 31.88464 32081 ft 465 kts 23°
2026-04-26 07:59 60.61206 31.91073 32424 ft 465 kts 23°
2026-04-26 07:59 60.63211 31.92838 32628 ft 465 kts 23°
2026-04-26 07:59 60.67152 31.96316 33016 ft 466 kts 23°
2026-04-26 08:00 60.70211 31.98475 33329 ft 465 kts 13°
2026-04-26 08:00 60.73396 31.99645 33554 ft 465 kts
2026-04-26 08:00 60.76626 31.99967 33801 ft 465 kts
2026-04-26 08:00 60.79851 32.00204 34076 ft 463 kts
2026-04-26 08:01 60.83072 32.00449 34313 ft 463 kts
2026-04-26 08:01 60.86303 32.00701 34510 ft 464 kts
2026-04-26 08:01 60.89529 32.00962 34743 ft 463 kts
2026-04-26 08:01 60.92733 32.01587 34983 ft 463 kts
2026-04-26 08:02 60.94850 32.02646 35115 ft 464 kts 17°
2026-04-26 08:02 60.97845 32.05146 35281 ft 465 kts 27°
2026-04-26 08:02 61.00582 32.08690 35497 ft 465 kts 38°
2026-04-26 08:02 61.03008 32.13096 35664 ft 466 kts 43°
2026-04-26 08:03 61.05359 32.17699 35822 ft 466 kts 43°
2026-04-26 08:03 61.07704 32.22300 36012 ft 465 kts 43°
2026-04-26 08:03 61.10050 32.26910 36165 ft 465 kts 43°
2026-04-26 08:03 61.12390 32.31520 36258 ft 464 kts 43°
2026-04-26 08:04 61.17057 32.40749 36270 ft 463 kts 43°
2026-04-26 08:04 61.21710 32.49972 36277 ft 463 kts 43°
2026-04-26 08:05 61.26357 32.59233 36273 ft 463 kts 43°
2026-04-26 08:05 61.30963 32.68461 36283 ft 463 kts 44°
2026-04-26 08:06 61.35595 32.77792 36282 ft 463 kts 43°
2026-04-26 08:06 61.40223 32.87153 36295 ft 464 kts 43°
2026-04-26 08:07 61.44856 32.96523 36292 ft 464 kts 44°
2026-04-26 08:07 61.49485 33.05936 36305 ft 464 kts 44°
2026-04-26 08:08 61.54101 33.15389 36297 ft 464 kts 44°
2026-04-26 08:08 61.58715 33.24881 36308 ft 465 kts 44°
2026-04-26 08:09 61.63331 33.34418 36305 ft 465 kts 44°
2026-04-26 08:09 61.67948 33.43981 36316 ft 465 kts 44°
2026-04-26 08:10 61.72550 33.53582 36327 ft 466 kts 44°
2026-04-26 08:10 61.77144 33.63221 36343 ft 466 kts 44°
2026-04-26 08:11 61.81743 33.72877 36343 ft 466 kts 44°
2026-04-26 08:11 61.86336 33.82556 36350 ft 465 kts 45°
2026-04-26 08:12 61.90919 33.92266 36371 ft 466 kts 44°
2026-04-26 08:12 61.95489 34.02005 36370 ft 465 kts 44°
2026-04-26 08:13 62.00050 34.11765 36371 ft 465 kts 44°
2026-04-26 08:13 62.04606 34.21569 36378 ft 465 kts 45°
2026-04-26 08:14 62.09150 34.31386 36380 ft 464 kts 45°
2026-04-26 08:14 62.13688 34.41211 36379 ft 464 kts 45°
2026-04-26 08:15 62.18212 34.51066 36380 ft 464 kts 45°
2026-04-26 08:15 62.22727 34.60950 36388 ft 464 kts 45°
2026-04-26 08:16 62.27230 34.70853 36384 ft 464 kts 45°
2026-04-26 08:16 62.31729 34.80802 36392 ft 464 kts 45°
2026-04-26 08:17 62.36224 34.90777 36393 ft 464 kts 45°
2026-04-26 08:17 62.40713 35.00782 36410 ft 464 kts 45°
2026-04-26 08:18 62.45199 35.10822 36405 ft 465 kts 46°
2026-04-26 08:18 62.49677 35.20912 36416 ft 465 kts 46°
2026-04-26 08:19 62.54123 35.30963 36422 ft 465 kts 46°
2026-04-26 08:19 62.58602 35.41104 36431 ft 465 kts 46°
2026-04-26 08:20 62.63056 35.51268 36436 ft 465 kts 46°
2026-04-26 08:20 62.67506 35.61470 36445 ft 465 kts 46°
2026-04-26 08:21 62.71947 35.71696 36449 ft 464 kts 46°
2026-04-26 08:21 62.76372 35.81936 36456 ft 464 kts 46°
2026-04-26 08:22 62.80795 35.92209 36447 ft 463 kts 46°
2026-04-26 08:22 62.85199 36.02504 36456 ft 463 kts 47°
2026-04-26 08:23 62.89592 36.12824 36459 ft 463 kts 47°
2026-04-26 08:23 62.93985 36.23173 36474 ft 463 kts 47°
2026-04-26 08:24 62.98367 36.33551 36474 ft 463 kts 47°
2026-04-26 08:24 63.02736 36.43957 36485 ft 463 kts 47°
2026-04-26 08:25 63.07101 36.54406 36483 ft 463 kts 47°
2026-04-26 08:25 63.11461 36.64877 36497 ft 463 kts 47°
2026-04-26 08:26 63.15817 36.75390 36497 ft 463 kts 47°
2026-04-26 08:26 63.20165 36.85918 36513 ft 463 kts 47°
2026-04-26 08:27 63.24477 36.96432 36516 ft 463 kts 47°
2026-04-26 08:27 63.28809 37.07052 36517 ft 464 kts 47°
2026-04-26 08:28 63.33146 37.17715 36416 ft 465 kts 47°
2026-04-26 08:28 63.35334 37.23110 35372 ft 476 kts 48°
2026-04-26 08:28 63.37569 37.28651 34531 ft 481 kts 48°
2026-04-26 08:29 63.39797 37.34190 33841 ft 477 kts 48°
2026-04-26 08:29 63.42001 37.39680 32959 ft 472 kts 48°
2026-04-26 08:29 63.44171 37.45092 32353 ft 464 kts 49°
2026-04-26 08:29 63.46310 37.50445 31814 ft 459 kts 49°
2026-04-26 08:30 63.48429 37.55747 31279 ft 455 kts 49°
2026-04-26 08:30 63.50525 37.61005 30772 ft 451 kts 49°
2026-04-26 08:30 63.52595 37.66219 30349 ft 444 kts 49°
2026-04-26 08:30 63.54641 37.71392 29865 ft 441 kts 50°
2026-04-26 08:31 63.56663 37.76515 29235 ft 439 kts 50°
2026-04-26 08:31 63.58676 37.81618 28765 ft 433 kts 50°
2026-04-26 08:31 63.60659 37.86656 28292 ft 427 kts 50°
2026-04-26 08:31 63.62610 37.91630 27841 ft 421 kts 50°
2026-04-26 08:32 63.64534 37.96546 27391 ft 416 kts 49°
2026-04-26 08:32 63.66435 38.01418 26947 ft 412 kts 49°
2026-04-26 08:32 63.68314 38.06239 26505 ft 408 kts 49°
2026-04-26 08:32 63.70178 38.11029 26060 ft 405 kts 49°
2026-04-26 08:33 63.72031 38.15802 25599 ft 403 kts 49°
2026-04-26 08:33 63.73871 38.20559 25148 ft 402 kts 49°
2026-04-26 08:33 63.75712 38.25320 24668 ft 402 kts 49°
2026-04-26 08:33 63.77546 38.30067 24203 ft 400 kts 49°
2026-04-26 08:34 63.79375 38.34811 23717 ft 399 kts 49°
2026-04-26 08:34 63.81195 38.39545 23230 ft 399 kts 49°
2026-04-26 08:34 63.83010 38.44279 22678 ft 398 kts 49°
2026-04-26 08:34 63.84813 38.48996 22202 ft 394 kts 49°
2026-04-26 08:35 63.86600 38.53683 21741 ft 392 kts 49°
2026-04-26 08:35 63.88374 38.58343 21249 ft 389 kts 50°
2026-04-26 08:35 63.90138 38.62980 20807 ft 386 kts 50°
2026-04-26 08:35 63.91880 38.67572 20342 ft 383 kts 50°
2026-04-26 08:36 63.93606 38.72134 19932 ft 379 kts 50°
2026-04-26 08:36 63.95320 38.76685 19532 ft 376 kts 50°
2026-04-26 08:36 63.97017 38.81206 19074 ft 374 kts 50°
2026-04-26 08:36 63.98699 38.85685 18595 ft 372 kts 50°
2026-04-26 08:37 64.00378 38.90158 18115 ft 372 kts 50°
2026-04-26 08:37 64.02049 38.94621 17756 ft 367 kts 50°
2026-04-26 08:37 64.03694 38.99035 17124 ft 363 kts 50°
2026-04-26 08:37 64.05320 39.03389 16669 ft 359 kts 50°
2026-04-26 08:38 64.07065 39.07423 16264 ft 356 kts 39°
2026-04-26 08:38 64.09000 39.10898 15889 ft 352 kts 38°
2026-04-26 08:38 64.10919 39.14346 15509 ft 349 kts 38°
2026-04-26 08:38 64.12817 39.17772 15137 ft 346 kts 38°
2026-04-26 08:39 64.14696 39.21182 14766 ft 344 kts 38°
2026-04-26 08:39 64.16564 39.24575 14398 ft 341 kts 38°
2026-04-26 08:39 64.18414 39.27941 14029 ft 339 kts 38°
2026-04-26 08:39 64.20258 39.31303 13658 ft 338 kts 38°
2026-04-26 08:40 64.22095 39.34652 13272 ft 337 kts 38°
2026-04-26 08:40 64.23920 39.37989 12885 ft 334 kts 38°
2026-04-26 08:40 64.25728 39.41298 12518 ft 331 kts 38°
2026-04-26 08:40 64.27520 39.44586 12134 ft 328 kts 38°
2026-04-26 08:41 64.29295 39.47844 11772 ft 325 kts 38°
2026-04-26 08:41 64.31055 39.51084 11393 ft 322 kts 38°
2026-04-26 08:41 64.32802 39.54303 11015 ft 320 kts 38°
2026-04-26 08:41 64.34534 39.57496 10644 ft 318 kts 38°
2026-04-26 08:42 64.36256 39.60676 10257 ft 316 kts 38°
2026-04-26 08:42 64.37967 39.63843 9877 ft 314 kts 39°
2026-04-26 08:42 64.39624 39.66917 9703 ft 305 kts 39°
2026-04-26 08:42 64.41270 39.69975 9306 ft 303 kts 39°
2026-04-26 08:43 64.42918 39.73039 8708 ft 300 kts 39°
2026-04-26 08:43 64.44623 39.75649 8310 ft 289 kts 28°
2026-04-26 08:43 64.46355 39.77877 7921 ft 279 kts 29°
2026-04-26 08:43 64.48031 39.80041 7686 ft 272 kts 29°
2026-04-26 08:44 64.49135 39.81468 7585 ft 264 kts 29°
2026-04-26 08:44 64.50695 39.83498 7245 ft 254 kts 30°
2026-04-26 08:44 64.52244 39.85523 6590 ft 257 kts 30°
2026-04-26 08:44 64.53810 39.87565 5949 ft 258 kts 31°
2026-04-26 08:45 64.55363 39.89592 5286 ft 259 kts 31°
2026-04-26 08:45 64.56934 39.91643 4621 ft 259 kts 31°
2026-04-26 08:45 64.58511 39.93707 3964 ft 260 kts 31°
2026-04-26 08:45 64.60106 39.95798 3445 ft 262 kts 30°
2026-04-26 08:46 64.61648 39.97863 3308 ft 248 kts 34°
2026-04-26 08:46 64.62784 40.00667 3170 ft 232 kts 63°
2026-04-26 08:46 64.63185 40.04157 3033 ft 218 kts 93°
2026-04-26 08:46 64.63001 40.07592 2857 ft 211 kts 97°
2026-04-26 08:47 64.62841 40.10929 2579 ft 208 kts 96°
2026-04-26 08:47 64.62692 40.14270 2286 ft 206 kts 96°
2026-04-26 08:47 64.62549 40.17492 2181 ft 193 kts 96°
2026-04-26 08:47 64.62414 40.20502 2063 ft 181 kts 97°
2026-04-26 08:48 64.62288 40.23312 2010 ft 166 kts 96°
2026-04-26 08:48 64.62174 40.25840 2001 ft 148 kts 97°
2026-04-26 08:48 64.62070 40.28133 1993 ft 139 kts 100°
2026-04-26 08:48 64.61968 40.30357 2000 ft 137 kts 99°
2026-04-26 08:49 64.61868 40.32559 2000 ft 136 kts 100°
2026-04-26 08:49 64.61767 40.34753 2004 ft 136 kts 99°
2026-04-26 08:49 64.61666 40.36951 2006 ft 136 kts 99°
2026-04-26 08:49 64.61565 40.39148 2002 ft 136 kts 99°
2026-04-26 08:50 64.61463 40.41338 2005 ft 136 kts 100°
2026-04-26 08:50 64.61362 40.43532 2003 ft 136 kts 99°
2026-04-26 08:50 64.61259 40.45727 1997 ft 137 kts 99°
2026-04-26 08:50 64.61158 40.47904 1894 ft 136 kts 99°
2026-04-26 08:51 64.60954 40.52246 1591 ft 134 kts 99°
2026-04-26 08:51 64.60852 40.54393 1412 ft 132 kts 99°
2026-04-26 08:51 64.60752 40.56511 1225 ft 131 kts 99°
2026-04-26 08:52 64.60652 40.58618 1027 ft 130 kts 99°
2026-04-26 08:52 64.60552 40.60719 825 ft 130 kts 97°
2026-04-26 08:52 64.60454 40.62804 653 ft 129 kts 96°
2026-04-26 08:52 64.60345 40.64885 455 ft 129 kts 96°
2026-04-26 08:53 64.60243 40.66952 257 ft 128 kts 96°
2026-04-26 08:53 64.60152 40.69025 69 ft 131 kts 95°
2026-04-26 08:53 64.60061 40.70916 38 ft 99 kts 96°
2026-04-26 08:53 64.60001 40.72194 34 ft 61 kts 96°
2026-04-26 08:54 64.59965 40.72964 40 ft 40 kts 96°
2026-04-26 08:54 64.59937 40.73530 35 ft 29 kts 96°
2026-04-26 08:54 64.59916 40.73886 34 ft 18 kts 93°
2026-04-26 08:54 64.59902 40.74143 36 ft 14 kts 101°
2026-04-26 08:55 64.59845 40.74217 39 ft 7 kts 189°
2026-04-26 08:55 64.59808 40.74206 40 ft 4 kts 186°
2026-04-26 08:55 64.59788 40.74201 40 ft 3 kts 186°
2026-04-26 08:55 64.59769 40.74196 40 ft 3 kts 185°
2026-04-26 08:56 64.59740 40.74190 40 ft 6 kts 185°
2026-04-26 08:56 64.59694 40.74161 40 ft 7 kts 218°
2026-04-26 08:56 64.59693 40.74029 40 ft 9 kts 278°
2026-04-26 08:56 64.59700 40.73900 40 ft 2 kts 276°
2026-04-26 08:57 64.59700 40.73887 40 ft 0 kts 276°
2026-04-26 08:57 64.59701 40.73885 40 ft 1 kts 276°
2026-04-26 08:57 64.59701 40.73856 40 ft 2 kts 275°
2026-04-26 08:57 64.59704 40.73783 40 ft 7 kts 275°
2026-04-26 08:58 64.59716 40.73674 40 ft 8 kts 283°
2026-04-26 08:58 64.59726 40.73513 40 ft 12 kts 275°
2026-04-26 08:58 64.59737 40.73292 40 ft 16 kts 277°
2026-04-26 08:58 64.59751 40.73014 40 ft 19 kts 276°
2026-04-26 08:59 64.59766 40.72709 40 ft 20 kts 276°
2026-04-26 08:59 64.59783 40.72367 40 ft 22 kts 277°
2026-04-26 08:59 64.59799 40.72015 40 ft 22 kts 277°
2026-04-26 08:59 64.59799 40.71758 40 ft 6 kts 233°
2026-04-26 09:00 64.59778 40.71749 40 ft 4 kts 182°
2026-04-26 09:00 64.59746 40.71742 40 ft 6 kts 185°
2026-04-26 09:00 64.59708 40.71691 40 ft 7 kts 251°
2026-04-26 09:00 64.59713 40.71562 40 ft 9 kts 274°
2026-04-26 09:01 64.59718 40.71437 40 ft 4 kts 272°
2026-04-26 09:01 64.59718 40.71429 40 ft 0 kts 271°
2026-04-26 09:01 64.59714 40.71416 40 ft 2 kts 242°
2026-04-26 09:01 64.59695 40.71395 40 ft 4 kts 191°
2026-04-26 09:02 64.59670 40.71390 40 ft 2 kts 186°
2026-04-26 09:02 64.59664 40.71389 40 ft 0 kts 186°